Regional Weather Roundup
Issued by NWS Goodland, KS

Home | Current Version | Previous Version | Text Only | Print | Product List | Glossary On
Versions: 1 2 3 4 5 6 7 8 9 10 11 12 13 14 15 16 17 18 19 20 21 22 23 24 25 26 27 28 29 30 31 32 33 34 35 36 37 38 39 40 41 42 43 44 45 46 47 48 49 50
000
ASUS43 KGLD 192308
RWRGLD

GOODLAND FORECAST AREA HOURLY WEATHER ROUNDUP
NATIONAL WEATHER SERVICE GOODLAND KS
400 PM MST FRI DEC 19 2014

...OFFICIAL OBSERVATIONS...

CITY           SKY/WX    TMP DP  RH WIND       PRES   REMARKS
GOODLAND KS    CLEAR     44  24  45 SW6       30.05S
HILL CITY KS   CLEAR     48  29  47 SW8       30.07R
IMPERIAL NEB   CLEAR     39  28  64 W7        30.02S
MCCOOK NEB     CLEAR     45  25  45 W6        30.03S
AKRON CO       CLEAR     35  25  66 S8        30.02R
BURLINGTON CO  CLEAR     40  28  62 SW7       30.05S
LIMON CO       CLEAR     40  13  33 SW6       30.02S
$$

...UNOFFICIAL OBSERVATIONS...

CITY           SKY/WX    TMP DP  RH WIND       PRES   REMARKS
COLBY KS       CLEAR     45  32  61 S7        30.05F
GOVE KS          N/A     46  32  58 MISG        N/A
NORTON KS      CLEAR     45  27  49 CALM      30.03F
SHARON SPRINGS   N/A     46  29  51 S7          N/A
TRIBUNE KS     CLEAR     48  32  53 S7        30.08S
KIT CARSON CO    N/A     41  28  60 MISG        N/A
YUMA CO          N/A     39  26  60 S8          N/A
$$



USA.gov is the U.S. government's official web portal to all federal, state and local government web resources and services.